Regional Weather Roundup
Issued by NWS

Home | Current Version | Previous Version | Graphics & Text | Print | Product List | Glossary On
Versions: 1 2 3 4 5 6 7 8 9 10 11 12 13 14 15 16 17 18 19 20 21 22 23 24 25 26 27 28 29 30 31 32 33 34 35 36 37 38 39 40 41 42 43 44 45 46 47 48 49 50
000
ASUS43 KOAX 221102
RWRNE

WEATHER ROUNDUP FOR NEBRASKA
NATIONAL WEATHER SERVICE OMAHA NE
600 AM CDT SAT APR 22 2017

NOTES: SATELLITE DATA IS BEING USED TO AUGMENT CLOUD COVER ABOVE
       12000 FEET.
       "FAIR" INDICATES FEW OR NO CLOUDS BELOW 12,000 FEET WITH NO
       SIGNIFICANT WEATHER AND/OR OBSTRUCTIONS TO VISIBILITY.

  * THESE STATIONS DO NOT REPORT WEATHER SUCH AS RAIN...SNOW OR FOG.

NEZ001>004-019>022-054>056-221200-
NEBRASKA PANHANDLE

CITY           SKY/WX    TMP DP  RH WIND       PRES   REMARKS
SCOTTSBLUFF    CLEAR     35  32  88 E6        30.25S WCI  30
ALLIANCE       CLEAR     29  28  96 SE8       30.25R WCI  21
CHADRON        CLEAR     39  32  76 CALM      30.24F
KIMBALL        CLOUDY    34  34 100 CALM      30.25S
SIDNEY         CLOUDY    38  36  92 E7        30.26S WCI  33
$$

NEZ057>060-069>072-079>082-221200-
SOUTHWEST NEBRASKA

CITY           SKY/WX    TMP DP  RH WIND       PRES   REMARKS
NORTH PLATTE   PTCLDY    29  28  96 NW3       30.27S
IMPERIAL       CLOUDY    37  34  89 CALM      30.27R
LEXINGTON      CLEAR     32  30  93 W7        30.25S WCI  26
MCCOOK         CLOUDY    37  34  89 NW6       30.25R WCI  32
OGALLALA       CLOUDY    32  29  90 CALM      30.27S
$$

NEZ005>010-023>029-035>040-094-221200-
NORTH CENTRAL NEBRASKA

CITY           SKY/WX    TMP DP  RH WIND       PRES   REMARKS
VALENTINE      CLEAR     29  26  89 W6        30.28R WCI  23
AINSWORTH      MOCLDY    36  34  92 CALM      30.27S
BROKEN BOW     MOCLDY    37  31  78 N5        30.25S WCI  33
O`NEILL        CLOUDY    43  38  82 NW3       30.26S
ORD            CLOUDY    37  33  85 CALM      30.25R
THEDFORD       CLEAR     30  29  96 W5        30.28R WCI  25
$$

NEZ041-046>049-061>064-073>077-083>087-221200-
SOUTH CENTRAL NEBRASKA

CITY           SKY/WX    TMP DP  RH WIND       PRES   REMARKS
GRAND ISLAND   PTCLDY    39  37  92 N7        30.24S WCI  34
AURORA         CLOUDY    38  36  92 N8        30.23S WCI  32
HASTINGS       PTCLDY    39  35  86 N7        30.24R WCI  34
HEBRON         CLOUDY    44  37  75 N8        30.21R
HOLDREGE       CLOUDY    37  33  84 N6        30.23S WCI  33
KEARNEY *      CLOUDY    39  34  81 N7        30.24S WCI  34
YORK           PTCLDY    39  37  93 N9        30.23S WCI  33
$$

NEZ011>018-030>034-042>045-221200-
NORTHEAST NEBRASKA

CITY           SKY/WX    TMP DP  RH WIND       PRES   REMARKS
NORFOLK        CLOUDY    37  35  92 W3        30.24S
ALBION         PTCLDY    38  35  90 NW5       30.25S WCI  34
BLAIR          CLOUDY    43  38  84 N9        30.21S
FREMONT        CLOUDY    41  37  86 N3        30.23S
TEKAMAH        CLOUDY    40  37  89 N8        30.24R WCI  34
WAYNE          CLOUDY    35  35  98 CALM      30.25S
$$

NEZ050>053-065>068-078-088>093-221200-
SOUTHEAST NEBRASKA

CITY           SKY/WX    TMP DP  RH WIND       PRES   REMARKS
LINCOLN        PTCLDY    43  37  79 N9        30.22S
OMAHA EPPLEY   CLOUDY    40  36  86 N10       30.22R WCI  33
BEATRICE       CLEAR     44  38  82 N9        30.19R
FALLS CITY     CLOUDY    47  39  74 N9        30.16R
NEBRASKA CITY  MOCLDY    43  35  73 N6        30.19S
PLATTSMOUTH    CLOUDY    43  35  71 N5        30.21R
$$

NEZ044-045-051>053-067-221200-
OMAHA AREA

CITY           SKY/WX    TMP DP  RH WIND       PRES   REMARKS
OMAHA EPPLEY   CLOUDY    40  36  86 N10       30.22R WCI  33
BLAIR          CLOUDY    43  38  84 N9        30.21S
FREMONT        CLOUDY    41  37  86 N3        30.23S
MILLARD        CLOUDY    44  38  82 NW6       30.22R
OFFUTT AFB     PTCLDY    44  37  74 N6        30.20R
PLATTSMOUTH    CLOUDY    43  35  71 N5        30.21R
WAHOO          FAIR      40  36  87 NW7       30.23R
$$




USA.gov is the U.S. government's official web portal to all federal, state and local government web resources and services.